www.pogodaiklimat.ru

Погода и климат >> Архив погоды >> Саудовская Аравия >> Arar


ПОГОДА в Arar

  • Прогноз погоды в Arar
  • Монитор погоды в Arar
  • Климат города

АРХИВ ПОГОДЫ в Arar

Время (UTC), дата Ветер
(напр.,м/с)
 
Видим.   Явления Облачность Т
(С)
Тd
(С)
f
(%)
Тe
(С)
Тes
(С)
Комфортность P
(гПа)
Po
(гПа)
Тmin
(С)
Tmax
(С)
R
(мм)
R24
(мм)
S
(см)
00 12.12 СВ 2 10 км ясно +4.8 -4.0 53 +3 +3 1025.7 961.2
03 12.12 З 3 10 км ясно +3.2 -5.0 55 -0 -0 1026.5 961.2
06 12.12 СЗ 2 10 км ясно +7.1 -3.0 49 +6 +8 1027.5 962.0 +2.8
09 12.12 З 2 10 км 4/0
[Ci sp]
+15.4 0.0 35 +16 +23 1025.8 960.9
12 12.12 ЮЗ 2 10 км 4/0
[Ac trans]
+18.8 +2.0 33 +20 +23 1023.6 959.1
15 12.12 штиль 0 10 км 5/0
[Ac trans]
+15.4 +1.0 38 +15 +15 1024.9 959.7
18 12.12 Ю 2 10 км ясно +12.0 -1.0 41 +12 +12 1024.9 959.8 +18.8
21 12.12 З 3 10 км ясно +7.2 -3.0 48 +5 +5 1023.7 959.0
00 13.12 З 3 10 км ясно +5.4 -4.0 51 +3 +3 1021.9 957.5
03 13.12 З 3 10 км ясно +3.5 -4.0 58 +1 +1 1021.5 956.6
06 13.12 З 3 10 км 4/0
[As op]
+9.1 -1.0 49 +7 +9 1021.3 956.6 +3.5
09 13.12 ЮЗ 3 10 км 4/0
[Ac trans]
+20.1 +2.0 30 +21 +26 комфорт 1019.1 955.2
12 13.12 Ю 3 10 км 5/0
[Ac trans]
+22.0 0.0 23 +21 +23 комфорт 1016.4 952.7
15 13.12 ЮВ 4 10 км 8/0
[Ac trans]
+16.8 -2.0 28 +16 +16 1016.2 951.8
18 13.12 ЮВ 3 10 км ясно +11.2 -3.0 37 +10 +10 1016.5 952.0 +23.0
21 13.12 З 6 10 км ясно +10.2 -2.0 42 +7 +7 1014.7 951.4
00 14.12 З 6 10 км ясно +7.8 -3.0 46 +4 +4 1013.4 950.2
03 14.12 СЗ 8 10 км ясно +8.0 +3.0 71 +4 +4 1014.3 950.5
06 14.12 СЗ 7 10 км ясно +11.0 +3.0 58 +8 +8 1016.0 951.8 +7.6
09 14.12 С 11 7000 м пыльный позёмок ясно +16.7 +5.0 46 +15 +15 1014.5 950.9
12 14.12 С 10 10 км ясно +19.4 +4.0 36 +19 +19 1013.8 950.3
15 14.12 С 3 10 км ясно +14.5 +1.0 40 +14 +14 1015.2 951.1
18 14.12 З 2 10 км ясно +10.4 0.0 48 +10 +10 1016.8 952.5 +19.4
21 14.12 З 3 10 км ясно +7.5 +1.0 63 +5 +5 1015.9 951.9
00 15.12 З 4 10 км ясно +6.8 +6.0 95 +3 +3 1015.7 951.9
03 15.12 З 5 10 км ясно +6.0 +6.0 100 +2 +2 1016.9 952.4
06 15.12 З 4 10 км 3/0
[Ci sp]
+9.4 +9.0 97 +6 +8 1019.0 954.3 +5.6
09 15.12 С 5 10 км ясно +17.2 +12.0 71 +17 +20 1017.8 953.7
12 15.12 С 7 10 км ясно +19.0 +10.0 56 +19 +20 1016.7 952.8
15 15.12 СВ 2 10 км ясно +13.4 +5.0 57 +13 +13 1019.4 954.7
18 15.12 СЗ 3 10 км ясно +8.6 +2.0 63 +7 +7 1021.0 956.0 +19.0
21 15.12 З 3 10 км ясно +6.7 +1.0 67 +4 +4 1021.2 956.8
00 16.12 З 3 10 км ясно +4.8 +2.0 82 +1 +1 1021.4 957.0
03 16.12 З 3 10 км ясно +3.5 +2.0 90 -1 -1 1023.0 957.8
06 16.12 З 3 10 км ясно +6.8 +4.0 82 +4 +6 1024.8 959.3 +3.1
09 16.12 В 2 10 км ясно +16.1 +7.0 55 +16 +24 1023.0 958.4
12 16.12 С 2 10 км 3/0
[Ci sp]
+18.2 +5.0 42 +19 +22 1022.2 957.7
15 16.12 В 2 10 км ясно +14.2 +3.0 47 +14 +14 1023.0 957.9
18 16.12 З 1 10 км ясно +9.4 +1.0 56 +9 +9 1024.5 959.1 +18.2
21 16.12 З 2 10 км ясно +7.1 0.0 61 +5 +5 1023.7 959.1
00 17.12 З 4 10 км ясно +4.3 -1.0 68 +1 +1 1023.8 959.1
03 17.12 З 4 10 км ясно +3.4 -1.0 73 -1 -1 1025.4 960.1
06 17.12 З 4 10 км ясно +6.6 +1.0 67 +3 +5 1026.2 960.7 +3.4
09 17.12 ЮЗ 2 10 км ясно +17.2 +5.0 44 +18 +26 1024.1 959.6
12 17.12 штиль 0 10 км 1/0
[Ci fib]
+19.2 +3.0 34 +19 +24 1022.3 957.8
15 17.12 штиль 0 10 км 1/0
[Ci fib]
+15.4 +2.0 40 +15 +15 1022.7 957.7
18 17.12 штиль 0 10 км ясно +10.6 0.0 48 +10 +10 1024.3 959.0 +19.4
21 17.12 ЮЗ 1 10 км ясно +8.0 -1.0 53 +8 +8 1024.1 959.7
00 18.12 З 2 10 км ясно +5.6 -3.0 54 +4 +4 1023.8 959.4
03 18.12 СЗ 3 10 км ясно +3.8 -3.0 61 0 0 1024.5 959.4
06 18.12 З 2 10 км 1/0
[Ci fib]
+8.5 -1.0 51 +7 +9 1025.0 959.9 +3.8
09 18.12 ЮЗ 2 10 км 3/0
[Ci fib]
+19.2 +8.0 48 +20 +27 1023.9 959.7
12 18.12 Ю 2 10 км 5/0
[Ac trans]
+22.0 +6.0 35 +23 +25 комфорт 1022.0 958.0
15 18.12 ЮВ 3 10 км 5/0
[Ac trans]
+18.0 +4.0 39 +18 +18 1023.1 958.4
18 18.12 Ю 3 10 км ясно +13.2 +3.0 50 +12 +12 1023.9 959.1 +21.4
21 18.12 Ю 4 10 км ясно +12.9 +5.0 59 +11 +11 1022.3 958.7

 

Местоположение метеостанции Arar (Саудовская Аравия): широта 30.90 долгота 41.13 высота над уровнем моря 549 м.

В архиве по умолчанию представлена погода в Arar за последнюю неделю. Архивные данные за месяц целиком и за предыдущие месяцы, начиная с января 2011 года, Вы можете получить, выбрав интересующий диапазон дат из раскрывающегося списка и нажав кнопку "Ввод!".

Внимание! Время в таблицах - всемирное. Для получения местного времени необходимо прибавить поправку, которая в Arar равна 3 ч.

Смотрите также архив погоды в соседних городах и на ближайших метеорологических станциях:

Погода в Al-Jouf (Саудовская Аравия) (159 км)
Погода в Al-Nukhib (Ирак) (165 км)
Погода в Turaif (Саудовская Аравия) (244 км)
Погода в Rutbah (Ирак) (250 км)
Погода в Rafha (Саудовская Аравия) (267 км)
Погода в Najaf (Ирак) (326 км)
Погода в Ruwaished (Иордания) (329 км)
Погода в Karbalaa (Ирак) (334 км)
Погода в Ramadi (Ирак) (351 км)
Погода в Hella (Ирак) (358 км)

Пояснения к столбцам:

Ветер - указаны скорость ветра в м/с - средняя за 10 мин, порывы в срок и между сроками (в фигурных скобках) и направление, откуда дует ветер: С - северный, СВ - северо-восточный, В - восточный, ЮВ - юго-восточный, Ю - южный, ЮЗ - юго-западный, З - западный, СЗ - северо-западный.
Видимость - горизонтальная дальность видимости в метрах или километрах. При видимости от 1 до 10 км при отсутствии осадков обычно наблюдается дымка, при ухудшении видимости до 1 км и менее - туман. В сухую погоду видимость может ухудшаться дымом, пылью или мглою.
Явления - указаны атмосферные явления, наблюдавшиеся в срок или в последний час перед сроком; фигурными скобками обозначены явления, наблюдавшиеся между сроками (за 1-3 часа до срока); квадратными скобками обозначены град или гололедные отложения с указанием их диаметра в мм.
Облачность - указаны через наклонную черту общая и нижняя облачность в баллах и высота нижней границы облаков в метрах; квадратными скобками обозначены формы облаков: Ci - перистые, Cs - перисто-слоистые, Cc - перисто-кучевые, Ac - высококучевые, As - высокослоистые, Sc - слоисто-кучевые, Ns - слоисто-дождевые, Cu - кучевые, Cb - кучево-дождевые. Подробнее классификацию облаков см. в Атласе облаков (PDF).
T - Температура воздуха - температура, измеренная на высоте 2 м над землей.
Td - Температура точки росы - температура, при понижении до которой содержащийся в воздухе водяной пар достигнет насыщения.
f - Относительная влажность воздуха - влажноcть воздуха, измеренная на высоте 2 м над землей.
Te - Эффективная температура - температура, которую ощущает одетый по сезону человек в тени. Характеристика душности погоды. При расчете учитывается влияние влажности воздуха и скорости ветра на теплоощущения человека.
Tes - Эффективная температура на солнце - температура, которую ощущает человек, с поправкой на солнечный нагрев. Характеристика знойности погоды. Зависит от высоты солнца над горизонтом, облачности и скорости ветра. Ночью, в пасмурную погоду, а также при ветре 12 м/с и более поправка равна нулю.
P - Атмосферное давление - приведенное к уровню моря атмосферное давление.
Po - Атмосферное давление - измеренное на уровне метеостанции атмосферное давление.
Tmin - Минимальная температура - минимум температуры воздуха на высоте 2 м над землей.
Tmax - Максимальная температура - максимум температуры воздуха на высоте 2 м над землей.
R - Количество осадков - Количество выпавших осадков за период времени, мм. При наведении курсора мыши на число - период времени, за который выпало указанное количество осадков.
R24 - Количество осадков - Количество выпавших осадков за 24 часа, мм.
S - Снежный покров - Высота снежного покрова, см. При наведении курсора мыши на число - состояние снежного покрова и степень покрытия местности в баллах.